Location: Unspecified
(0.0000°N, 0.0000°E)
Time: 04:28:48
(UTC+00:00)

QB50P2 - Pass Details

Date: 20 March 2026
Orbit: 517 x 528 km, 98.1° (Epoch: 20 April)

Event Time Altitude Azimuth Distance (km) Brightness Sun altitude
Rises 04:53:36 0° 7° (N) 2,621 ? -18.5°
Reaches altitude 10° 04:55:41 10° 4° (N) 1,739 ? -18.0°
Maximum altitude 04:59:24 66° 282° (WNW) 568 ? -17.0°
Drops below altitude 10° 05:03:09 10° 199° (SSW) 1,753 ? -16.1°
Sets 05:05:16 0° 196° (SSW) 2,645 ? -15.6°
